Regional Weather Roundup
Issued by NWS

Home | Current Version | Previous Version | Graphics & Text | Print | Product List | Glossary On
Versions: 1 2 3 4 5 6 7 8 9 10 11 12 13 14 15 16 17 18 19 20 21 22 23 24 25 26 27 28 29 30 31 32 33 34 35 36 37 38 39 40 41 42 43 44 45 46 47 48 49 50
000
ASUS44 KMEG 170510
RWRTN
TENNESSEE HOURLY STATE WEATHER ROUNDUP
NATIONAL WEATHER SERVICE MEMPHIS TN
1200 AM CDT WED SEP 17 2014

TNZ002-004-019-021-049-052-054-088>092-170600-
WEST TENNESSEE

CITY           SKY/WX    TMP DP  RH WIND       PRES   REMARKS
MEMPHIS INTL   CLEAR     68  60  75 NE6       30.07S
NWS MEMPHIS      N/A     66 N/A N/A MISG        N/A
JACKSON        MOCLDY    62  60  93 CALM      30.08S
DYERSBURG      CLOUDY    64  50  59 NE9       30.09F
UNION CITY     CLOUDY    57  54  88 NE3       30.09S
PARIS          MOCLDY    55  52  88 N5        30.09F
HUNTINGDON     CLOUDY    59  53  80 NE6       30.09S
LEXINGTON      CLOUDY    63  59  88 CALM      30.06F
SAVANNAH       PTCLDY    63  63 100 CALM      30.07S
$$

TNZ008-025-027-028-033-062-065-066-170600-
NORTH MIDDLE TENNESSEE

CITY           SKY/WX    TMP DP  RH WIND       PRES   REMARKS
NASHVILLE      PTCLDY    61  55  81 NW5       30.07S
DICKSON        CLEAR     55  52  88 CALM      30.08S
PORTLAND       CLEAR     54  54 100 N3        30.07F
CLARKSVILLE    CLEAR     54  50  86 N5        30.08F
LEBANON        CLOUDY    55  55 100 CALM      30.05F VSB 1/4
SMYRNA         CLEAR     59  56  89 CALM      30.07F
MURFREESBORO   CLEAR     62  58  87 NW3       30.06S
COOKEVILLE       N/A     61  61 100 CALM      30.06S VSB 0
LIVINGSTON     CLEAR     57  56  97 NE5       30.07
GALLATIN       CLEAR     59  57  92 N6        30.07F
CROSSVILLE     MOCLDY    59  56  89 CALM      30.08F FOG
$$

TNZ061-075-076-078-094-096-097-170600-
SOUTH MIDDLE TENNESSEE

CITY           SKY/WX    TMP DP  RH WIND       PRES   REMARKS
LEWISBURG      MOCLDY    62  59  90 CALM      30.07S
FAYETTEVILLE   PTCLDY    63  63 100 CALM      30.06S
TULLAHOMA      CLEAR     61  57  88 CALM      30.07S
WINCHESTER     CLEAR     63  63 100 N5        30.06S
MCMINNVILLE      N/A     59  59 100 CALM      30.06F VSB 0
COLUMBIA       CLOUDY    63  63 100 CALM      30.06S
SHELBYVILLE    CLEAR     63  63 100 N3        30.07S
$$

TNZ017-018-042-046-047-170600-
NORTHEAST TENNESSEE

CITY           SKY/WX    TMP DP  RH WIND       PRES   REMARKS
TRI CITIES     CLOUDY    63  57  81 N5        30.05S
ELIZABETHTON   MOCLDY    59  57  94 CALM      30.05S
$$

TNZ012-013-036-069-073-074-170600-
CENTRAL EAST TENNESSEE

CITY           SKY/WX    TMP DP  RH WIND       PRES   REMARKS
KNOXVILLE      CLOUDY    67  60  78 N6        30.03F
OAK RIDGE      PTCLDY    62  59  90 CALM      30.06S
GATLINBURG     CLOUDY    64  61  88 NW3       30.03F
MORRISTOWN     PTCLDY    64  63  94 CALM      30.05F
$$

TNZ083-085-099-170600-
SOUTHEAST TENNESSEE

CITY           SKY/WX    TMP DP  RH WIND       PRES   REMARKS
CHATTANOOGA    PTCLDY    70  62  76 N9        30.03F
$$

SKY/WX REPORTED AS FAIR MEANS FEW OR NO CLOUDS BELOW
12 THOUSAND FEET.



USA.gov is the U.S. government's official web portal to all federal, state and local government web resources and services.